Location: Mat�lon
(46.2791°N, 7.1028°E)
Time: 04:26:58
(UTC+00:00)

Okean 1 Rocket - Visible Passes

Search period start: 04 August 2021 00:00
Search period end: 14 August 2021 00:00
Orbit: 607 x 633 km, 82.5° (Epoch: 03 August)

Date Brightness Start Highest point End Pass type
(mag) Time Alt. Az. Time Alt. Az. Time Alt. Az.
04 Aug 5.3 02:02:07 10° SE 02:05:33 22° E 02:09:00 10° NE visible
04 Aug 3.8 03:39:04 10° SW 03:43:12 38° WNW 03:47:24 10° N visible
05 Aug 4.3 02:19:05 10° SSE 02:23:08 39° E 02:27:18 10° NNE visible
06 Aug 3.3 02:37:12 15° S 02:40:49 72° E 02:45:18 10° NNE visible
07 Aug 5.7 01:19:01 10° ESE 01:21:17 14° E 01:23:34 10° NE visible
07 Aug 3.2 02:55:16 17° SSW 02:58:36 63° W 03:03:05 10° N visible
08 Aug 5.0 01:36:08 14° SE 01:38:47 24° E 01:42:24 10° NE visible
08 Aug 3.9 03:13:20 15° SW 03:16:30 35° WNW 03:20:38 10° N visible
09 Aug 4.1 01:54:09 24° SSE 01:56:23 43° E 02:00:38 10° NNE visible
09 Aug 4.6 03:31:21 11° WSW 03:34:30 21° WNW 03:37:54 10° NNW visible
10 Aug 3.1 02:12:10 34° S 02:14:06 79° E 02:18:36 10° NNE visible
10 Aug 5.2 03:50:46 10° W 03:52:37 12° WNW 03:54:28 10° NW visible
11 Aug 5.5 00:52:57 13° ESE 00:54:31 15° E 00:57:05 10° NE visible
11 Aug 3.2 02:30:09 34° SW 02:31:53 57° WNW 02:36:20 10° N visible
12 Aug 4.7 01:10:55 24° ESE 01:12:01 26° E 01:15:46 10° NNE visible
12 Aug 4.0 02:48:07 24° WSW 02:49:48 32° WNW 02:53:51 10° N visible
13 Aug 3.8 01:28:52 42° SE 01:29:39 47° E 01:33:57 10° NNE visible
13 Aug 4.8 03:06:04 16° W 03:07:49 19° WNW 03:11:03 10° NNW visible
